Location: Black Creek
(40.9000°S, 175.5500°E)
Time: 02:40:25
(UTC+00:00)

USA 306 - Pass Details

Date: 04 August 2024
Orbit: 496 x 519 km, 54.0° (Epoch: 15 February)

Event Time Altitude Azimuth Distance (km) Brightness Sun altitude
Exits shadow 16:59:32 29° 85° (E) 843 4.3 -26.8°
Drops below altitude 10° 17:01:39 10° 67° (ENE) 1,606 6.0 -26.4°
Sets 17:03:59 0° 61° (ENE) 2,529 7.2 -26.0°
